Погода в Мито

Япония     36°22′17″N   140°28′15″E
темп.,
°C
ветер,
м/с
пор.,
м/с
влажн.,
%
обл.,
%
осадки,
мм/ч
давл.,
гПа
погр.,
м
14 июня, пн
пн1400:00+23зюз2572100 0.1 1009355
03:00+21сз1193100 2.4 100961
06:00+21юз1386100 0.1 1008361
09:00+24ююз2357100 0.1 1008968
12:00+25юв2259100 0.1 10071024
15:00+25юв4359100 0.1 10061115
18:00+22юв4574100 0.4 1007376
21:00+21ю2487100 1.0 1007340
15 июня, вт
вт1500:00+20ю24926 1.1 1007167
03:00+19юз11955 1.1 100627
06:00+20сз119120 0.0 1007195
09:00+23в217338 0.4 1007776
12:00+25вюв436436 1.6 10071035
15:00+24вюв54665 1.8 1007730
18:00+21вюв3579100 0.1 1007348
21:00+21вюв3581100 0.1 1008239
16 июня, ср
ср1600:00+21юв2487100 0.4 1008159
03:00+20вюв2487100 0.5 1007158
06:00+21вюв358371 0.0 1008369
09:00+23в4565100 0.1 1008944
12:00+24вюв5565100 0.1 10081047
15:00+23в5669100 0.1 1008905
18:00+21в4775100 0.1 1009611
21:00+20в4779100 0.3 1009393
17 июня, чт
чт1700:00+20св4781100 0.0 1008458
03:00+18всв4691100 1.9 1007367
06:00+18св5993100 4.1 1008563
09:00+17ссв5994100 7.4 1007540
12:00+17с4894100 3.7 1007429
15:00+17с4994100 5.5 1006478
18:00+18ссв51088100 0.1 1006579
21:00+17с499071 0.3 1006421
18 июня, пт
пт1800:00+17с398898 0.0 1005392
03:00+17с4988100 0.1 1004546
06:00+18с379046 0.1 1008391
09:00+21св557345 0.3 1007866
12:00+22всв556991 0.1 1006941
15:00+21всв556862 0.1 1006920
18:00+19в447399 0.0 1006753
21:00+18в3577100 0.0 1007594